QPF
0.00 0.00 0.00 0.00 0.00 0.00 0.00 0.00 0.00 0.00 0.00 0.00 0.00 0.00 0.00 0.00 0.00 0.00 0.00 0.00 0.00 0.00 0.00 0.00 0.00 0.00 0.00 0.00 0.00 0.00 0.00 0.00 0.00 0.00 0.00 0.00 0.00 0.00 0.00 0.00 0.00 0.00 0.00 0.00
0.00 0.00 0.00 0.00 0.00 0.00 0.00 0.00 0.00 0.00 0.00 0.00 0.00 0.00 0.00 0.00 0.00 0.00 0.00 0.00 0.00 0.00 0.00 0.00 0.00 0.00 0.00 0.00 0.00 0.00 0.00 0.00 0.00 0.00 0.00 0.00 0.00 0.00 0.00 0.00 0.00 0.00 0.00 0.00
0.00 0.00 0.00 0.00 0.00 0.00 0.00 0.00 0.00 0.00 0.00 0.00 0.00 0.00 0.00 0.00 0.00 0.00 0.00 0.00 0.00 0.00 0.00 0.00 0.00 0.00 0.00 0.00 0.00 0.00 0.00 0.00 0.00 0.00 0.00 0.00 0.00 0.00 0.00 0.00 0.00 0.00 0.00 0.00
0.00 0.00 0.00 0.00 0.00 0.00 0.00 0.00 0.00 0.00 0.00 0.00 0.00 0.00 0.00 0.00 0.00 0.00 0.00 0.00 0.00 0.00 0.00 0.00 0.00 0.00 0.00 0.00 0.00 0.00 0.00 0.00 0.00 0.00 0.00 0.00 0.00 0.00 0.00 0.00 0.00 0.00 0.00 0.00
0.00 0.00 0.00 0.00 0.00 0.00 0.00 0.00 0.00 0.00 0.00 0.00 0.00 0.00 0.00 0.00 0.00 0.00 0.00 0.00 0.00 0.00 0.00 0.00 0.00 0.00 0.00 0.00 0.00 0.00 0.00 0.00 0.00 0.00 0.00 0.00 0.00 0.00 0.00 0.00 0.00 0.00 0.00 0.00
0.00 0.00 0.00 0.00 0.00 0.00 0.00 0.00 0.00 0.00 0.00 0.00 0.00 0.00 0.00 0.00 0.00 0.00 0.00 0.00 0.00 0.00 0.00 0.00 0.00 0.00 0.00 0.00 0.00 0.00 0.00 0.00 0.00 0.00 0.00 0.00 0.00 0.00 0.00 0.00 0.00 0.00 0.00 0.00
0.00 0.00 0.00 0.00 0.00 0.00 0.00 0.00 0.00 0.00 0.00 0.00 0.00 0.00 0.00 0.00 0.00 0.00 0.00 0.00 0.00 0.00 0.00 0.00 0.00 0.00 0.00 0.00 0.00 0.00 0.00 0.00 0.00 0.00 0.00 0.00 0.00 0.00 0.00 0.00 0.00 0.00 0.00 0.00
0.00 0.00 0.00 0.00 0.00 0.00 0.00 0.00 0.00 0.00 0.00 0.00 0.00 0.00 0.00 0.00 0.00 0.00 0.00 0.00 0.00 0.00 0.00 0.00 0.00 0.00 0.00 0.00 0.00 0.00 0.00 0.00 0.00 0.00 0.00 0.00 0.00 0.00 0.00 0.00 0.00 0.00 0.00 0.00
0.00 0.00 0.00 0.00 0.00 0.00 0.00 0.00 0.00 0.00 0.00 0.00 0.00 0.00 0.00 0.00 0.00 0.00 0.00 0.00 0.00 0.00 0.00 0.00 0.00 0.00 0.00 0.00 0.00 0.00 0.00 0.00 0.00 0.00 0.00 0.00 0.00 0.00 0.00 0.00 0.00 0.00 0.00 0.00
0.00 0.00 0.00 0.00 0.00 0.00 0.00 0.00 0.00 0.00 0.00 0.00 0.00 0.00 0.00 0.00 0.00 0.00 0.00 0.00 0.00 0.00 0.00 0.00 0.00 0.00 0.00 0.00 0.00 0.00 0.00 0.00 0.00 0.00 0.00 0.00 0.00 0.00 0.00 0.00 0.00 0.00 0.00 0.00
0.00 0.00 0.00 0.00 0.00 0.00 0.00 0.00 0.00 0.00 0.00 0.00 0.00 0.00 0.00 0.00 0.00 0.00 0.00 0.00 0.00 0.00 0.00 0.00 0.00 0.00 0.00 0.00 0.00 0.00 0.00 0.00 0.00 0.00 0.00 0.00 0.00 0.00 0.00 0.00 0.00 0.00 0.00 0.00
0.00 0.00 0.00 0.00 0.00 0.00 0.00 0.00 0.00 0.00 0.00 0.00 0.00 0.00 0.00 0.00 0.00 0.00 0.00 0.00 0.00 0.00 0.00 0.00 0.00 0.00 0.00 0.00 0.00 0.00 0.00 0.00 0.00 0.00 0.00 0.00 0.00 0.00 0.00 0.00 0.00 0.00 0.00 0.00
0.00 0.03 0.04 0.02 0.00 0.00 0.00 0.00 0.00 0.00 0.00 0.00 0.00 0.00 0.00 0.00 0.00 0.00 0.00 0.00 0.00 0.00 0.00 0.00 0.00 0.00 0.00 0.00 0.00 0.00 0.00 0.00 0.00 0.00 0.00 0.00 0.00 0.00 0.00 0.00 0.00 0.00 0.00 0.00
0.01 0.04 0.03 0.01 0.00 0.00 0.00 0.00 0.00 0.00 0.00 0.00 0.00 0.00 0.00 0.00 0.00 0.00 0.00 0.00 0.00 0.00 0.00 0.00 0.00 0.00 0.00 0.00 0.00 0.00 0.00 0.00 0.00 0.00 0.00 0.00 0.00 0.00 0.00 0.00 0.00 0.00 0.00 0.00
0.06 0.09 0.03 0.00 0.00 0.00 0.00 0.00 0.00 0.00 0.00 0.00 0.00 0.00 0.00 0.00 0.00 0.00 0.00 0.00 0.00 0.00 0.00 0.00 0.00 0.00 0.00 0.00 0.00 0.00 0.00 0.00 0.00 0.00 0.00 0.00 0.00 0.00 0.00 0.00 0.00 0.00 0.00 0.00
0.11 0.13 0.07 0.02 0.00 0.00 0.03 0.03 0.00 0.00 0.00 0.00 0.00 0.00 0.00 0.00 0.00 0.00 0.00 0.00 0.00 0.00 0.00 0.00 0.00 0.00 0.00 0.00 0.00 0.00 0.00 0.00 0.00 0.00 0.00 0.00 0.00 0.00 0.00 0.00 0.00 0.00 0.00 0.00
0.22 0.23 0.20 0.12 0.02 0.05 0.14 0.07 0.01 0.00 0.00 0.00 0.00 0.00 0.00 0.00 0.00 0.00 0.00 0.00 0.00 0.00 0.00 0.00 0.00 0.00 0.00 0.00 0.00 0.00 0.00 0.00 0.00 0.00 0.00 0.00 0.00 0.00 0.00 0.00 0.00 0.00 0.00 0.00
0.23 0.27 0.33 0.31 0.18 0.21 0.11 0.02 0.00 0.00 0.00 0.00 0.00 0.00 0.00 0.00 0.00 0.00 0.00 0.00 0.00 0.00 0.00 0.00 0.00 0.00 0.00 0.00 0.00 0.00 0.00 0.00 0.00 0.00 0.00 0.00 0.00 0.00 0.00 0.00 0.00 0.00 0.00 0.00
0.14 0.19 0.35 0.47 0.39 0.20 0.02 0.00 0.00 0.00 0.00 0.00 0.00 0.00 0.00 0.00 0.00 0.00 0.00 0.00 0.00 0.00 0.00 0.00 0.00 0.00 0.00 0.00 0.00 0.00 0.00 0.00 0.00 0.00 0.00 0.00 0.00 0.00 0.00 0.00 0.00 0.00 0.00 0.00
0.08 0.13 0.30 0.56 0.53 0.24 0.02 0.00 0.00 0.00 0.00 0.00 0.00 0.00 0.00 0.00 0.00 0.00 0.00 0.00 0.00 0.00 0.00 0.00 0.00 0.00 0.00 0.00 0.00 0.00 0.00 0.00 0.00 0.00 0.00 0.00 0.00 0.00 0.00 0.00 0.00 0.00 0.00 0.00
0.05 0.14 0.30 0.43 0.45 0.22 0.01 0.00 0.00 0.00 0.00 0.00 0.00 0.00 0.00 0.00 0.00 0.00 0.00 0.00 0.00 0.00 0.00 0.00 0.00 0.00 0.00 0.00 0.00 0.00 0.00 0.00 0.00 0.00 0.00 0.00 0.00 0.00 0.00 0.00 0.00 0.01 0.01 0.01
0.03 0.10 0.19 0.24 0.34 0.22 0.02 0.00 0.00 0.00 0.00 0.00 0.00 0.00 0.00 0.00 0.00 0.00 0.00 0.00 0.00 0.00 0.00 0.00 0.00 0.00 0.00 0.00 0.00 0.00 0.00 0.00 0.00 0.00 0.00 0.00 0.00 0.00 0.00 0.00 0.00 0.00 0.01 0.01
0.03 0.04 0.05 0.08 0.10 0.04 0.01 0.01 0.01 0.00 0.00 0.00 0.00 0.00 0.00 0.00 0.00 0.00 0.00 0.00 0.00 0.00 0.00 0.00 0.00 0.00 0.00 0.00 0.00 0.00 0.00 0.00 0.00 0.00 0.00 0.00 0.00 0.00 0.00 0.00 0.00 0.00 0.00 0.00
0.02 0.02 0.03 0.05 0.03 0.02 0.01 0.01 0.01 0.01 0.01 0.00 0.00 0.00 0.00 0.00 0.00 0.00 0.00 0.00 0.00 0.00 0.00 0.00 0.00 0.00 0.00 0.00 0.00 0.00 0.00 0.00 0.00 0.00 0.00 0.00 0.00 0.00 0.00 0.00 0.00 0.00 0.00 0.00
0.03 0.03 0.04 0.05 0.02 0.02 0.02 0.01 0.01 0.01 0.01 0.01 0.00 0.00 0.00 0.00 0.00 0.00 0.00 0.00 0.00 0.00 0.00 0.00 0.00 0.00 0.00 0.00 0.00 0.00 0.00 0.00 0.00 0.00 0.00 0.00 0.00 0.00 0.00 0.00 0.00 0.00 0.00 0.00
0.02 0.02 0.02 0.03 0.01 0.01 0.01 0.01 0.01 0.01 0.01 0.00 0.00 0.00 0.00 0.00 0.00 0.00 0.00 0.00 0.00 0.00 0.00 0.00 0.00 0.00 0.00 0.00 0.00 0.00 0.00 0.00 0.00 0.00 0.00 0.00 0.00 0.00 0.00 0.00 0.00 0.00 0.00 0.00
MSLP
1019.30 1019.78 1020.15 1020.43 1020.62 1020.76 1020.86 1020.94 1021.00 1021.03 1021.01 1020.93 1020.78 1020.56 1020.31 1020.05 1019.84 1019.73 1019.74 1019.91 1020.21 1020.64 1021.12 1021.62 1022.06 1022.41 1022.64 1022.76 1022.80 1022.81 1022.86 1022.98 1023.22 1023.59 1024.07 1024.61 1025.17 1025.70 1026.14 1026.48 1026.72 1026.89 1027.03 1027.19
1019.63 1019.99 1020.25 1020.42 1020.55 1020.68 1020.82 1020.98 1021.13 1021.25 1021.27 1021.18 1020.94 1020.57 1020.11 1019.62 1019.18 1018.87 1018.74 1018.84 1019.14 1019.62 1020.21 1020.82 1021.39 1021.84 1022.15 1022.33 1022.42 1022.49 1022.59 1022.80 1023.14 1023.63 1024.24 1024.91 1025.58 1026.19 1026.68 1027.06 1027.31 1027.48 1027.62 1027.78
1019.66 1019.89 1020.03 1020.13 1020.24 1020.40 1020.62 1020.89 1021.17 1021.37 1021.44 1021.32 1020.97 1020.43 1019.73 1018.99 1018.30 1017.77 1017.49 1017.50 1017.80 1018.33 1019.02 1019.76 1020.45 1021.03 1021.45 1021.72 1021.90 1022.04 1022.23 1022.54 1022.99 1023.60 1024.33 1025.11 1025.88 1026.57 1027.13 1027.55 1027.83 1028.02 1028.18 1028.36
1019.36 1019.46 1019.51 1019.56 1019.69 1019.93 1020.28 1020.69 1021.10 1021.40 1021.50 1021.33 1020.87 1020.13 1019.20 1018.20 1017.26 1016.52 1016.08 1016.01 1016.29 1016.87 1017.66 1018.53 1019.36 1020.07 1020.62 1021.00 1021.28 1021.52 1021.81 1022.22 1022.78 1023.49 1024.32 1025.20 1026.05 1026.81 1027.43 1027.89 1028.22 1028.45 1028.64 1028.85
1018.76 1018.75 1018.74 1018.79 1018.98 1019.33 1019.82 1020.39 1020.93 1021.32 1021.45 1021.23 1020.65 1019.73 1018.57 1017.33 1016.16 1015.24 1014.67 1014.52 1014.80 1015.43 1016.30 1017.28 1018.25 1019.09 1019.76 1020.27 1020.66 1021.00 1021.38 1021.88 1022.52 1023.31 1024.21 1025.15 1026.06 1026.88 1027.54 1028.06 1028.43 1028.71 1028.95 1029.21
1017.96 1017.86 1017.82 1017.90 1018.18 1018.66 1019.30 1020.01 1020.67 1021.13 1021.27 1021.00 1020.30 1019.23 1017.89 1016.45 1015.12 1014.06 1013.40 1013.21 1013.49 1014.17 1015.12 1016.20 1017.27 1018.23 1019.01 1019.62 1020.11 1020.53 1020.99 1021.55 1022.25 1023.08 1024.02 1024.99 1025.93 1026.77 1027.48 1028.03 1028.45 1028.79 1029.10 1029.41
1017.06 1016.91 1016.87 1017.02 1017.39 1017.99 1018.76 1019.59 1020.33 1020.83 1020.95 1020.63 1019.84 1018.64 1017.19 1015.64 1014.21 1013.09 1012.40 1012.21 1012.52 1013.24 1014.26 1015.41 1016.56 1017.60 1018.46 1019.14 1019.69 1020.18 1020.69 1021.28 1022.00 1022.84 1023.78 1024.75 1025.69 1026.53 1027.25 1027.84 1028.32 1028.71 1029.08 1029.46
1016.17 1016.02 1016.02 1016.24 1016.70 1017.40 1018.26 1019.15 1019.91 1020.40 1020.48 1020.09 1019.24 1017.99 1016.48 1014.91 1013.49 1012.39 1011.74 1011.60 1011.96 1012.73 1013.80 1014.99 1016.18 1017.25 1018.15 1018.87 1019.45 1019.96 1020.48 1021.08 1021.80 1022.62 1023.53 1024.46 1025.38 1026.21 1026.94 1027.55 1028.07 1028.53 1028.97 1029.42
1015.37 1015.26 1015.33 1015.62 1016.17 1016.92 1017.80 1018.68 1019.40 1019.82 1019.83 1019.38 1018.48 1017.23 1015.76 1014.26 1012.93 1011.94 1011.40 1011.36 1011.80 1012.62 1013.72 1014.92 1016.10 1017.16 1018.05 1018.76 1019.34 1019.85 1020.37 1020.96 1021.64 1022.43 1023.29 1024.19 1025.06 1025.87 1026.59 1027.22 1027.78 1028.29 1028.80 1029.32
1014.69 1014.66 1014.82 1015.19 1015.78 1016.53 1017.36 1018.16 1018.76 1019.06 1018.97 1018.46 1017.55 1016.34 1014.98 1013.64 1012.49 1011.68 1011.31 1011.41 1011.93 1012.81 1013.90 1015.08 1016.22 1017.23 1018.07 1018.75 1019.31 1019.80 1020.30 1020.87 1021.53 1022.28 1023.10 1023.95 1024.78 1025.57 1026.28 1026.92 1027.51 1028.07 1028.62 1029.20
1014.10 1014.20 1014.45 1014.88 1015.48 1016.17 1016.89 1017.53 1017.96 1018.09 1017.88 1017.30 1016.40 1015.28 1014.08 1012.95 1012.04 1011.48 1011.31 1011.56 1012.18 1013.09 1014.17 1015.29 1016.35 1017.29 1018.06 1018.69 1019.22 1019.70 1020.20 1020.76 1021.41 1022.14 1022.93 1023.75 1024.56 1025.32 1026.02 1026.67 1027.28 1027.87 1028.46 1029.07
1013.54 1013.77 1014.12 1014.59 1015.15 1015.75 1016.30 1016.73 1016.94 1016.89 1016.53 1015.89 1015.03 1014.03 1013.02 1012.14 1011.50 1011.18 1011.22 1011.63 1012.33 1013.25 1014.28 1015.33 1016.30 1017.15 1017.86 1018.45 1018.97 1019.46 1019.98 1020.56 1021.23 1021.97 1022.76 1023.57 1024.36 1025.11 1025.81 1026.46 1027.08 1027.69 1028.30 1028.92
1012.92 1013.28 1013.71 1014.19 1014.68 1015.14 1015.50 1015.70 1015.69 1015.44 1014.95 1014.26 1013.44 1012.58 1011.77 1011.14 1010.76 1010.68 1010.91 1011.43 1012.19 1013.10 1014.07 1015.03 1015.90 1016.68 1017.34 1017.92 1018.45 1018.99 1019.57 1020.21 1020.93 1021.72 1022.53 1023.35 1024.14 1024.90 1025.60 1026.25 1026.88 1027.49 1028.10 1028.72
1012.19 1012.64 1013.10 1013.56 1013.97 1014.28 1014.44 1014.42 1014.20 1013.77 1013.18 1012.46 1011.70 1010.98 1010.37 1009.96 1009.80 1009.91 1010.29 1010.89 1011.66 1012.52 1013.42 1014.28 1015.08 1015.79 1016.44 1017.04 1017.63 1018.25 1018.93 1019.68 1020.48 1021.33 1022.20 1023.05 1023.86 1024.62 1025.32 1025.98 1026.61 1027.22 1027.83 1028.44
1011.32 1011.79 1012.25 1012.66 1012.96 1013.12 1013.10 1012.90 1012.51 1011.96 1011.31 1010.60 1009.91 1009.32 1008.88 1008.66 1008.67 1008.91 1009.37 1009.99 1010.73 1011.53 1012.33 1013.11 1013.84 1014.52 1015.18 1015.84 1016.53 1017.27 1018.08 1018.95 1019.86 1020.80 1021.72 1022.61 1023.45 1024.22 1024.93 1025.60 1026.23 1026.85 1027.46 1028.06
1010.31 1010.75 1011.16 1011.48 1011.67 1011.70 1011.55 1011.22 1010.73 1010.12 1009.46 1008.80 1008.20 1007.74 1007.44 1007.36 1007.47 1007.78 1008.25 1008.84 1009.51 1010.21 1010.92 1011.62 1012.30 1012.98 1013.69 1014.44 1015.24 1016.12 1017.07 1018.07 1019.10 1020.12 1021.10 1022.03 1022.89 1023.68 1024.41 1025.08 1025.73 1026.36 1026.97 1027.58
1009.22 1009.57 1009.88 1010.09 1010.18 1010.12 1009.89 1009.50 1008.99 1008.40 1007.79 1007.21 1006.73 1006.39 1006.20 1006.20 1006.36 1006.68 1007.11 1007.62 1008.18 1008.78 1009.39 1010.01 1010.67 1011.37 1012.14 1012.98 1013.92 1014.93 1016.01 1017.13 1018.24 1019.33 1020.37 1021.33 1022.20 1023.00 1023.74 1024.44 1025.10 1025.76 1026.40 1027.03
1008.12 1008.33 1008.51 1008.63 1008.64 1008.52 1008.27 1007.90 1007.44 1006.94 1006.44 1005.99 1005.63 1005.40 1005.30 1005.34 1005.51 1005.78 1006.12 1006.53 1006.97 1007.45 1007.96 1008.53 1009.17 1009.90 1010.73 1011.67 1012.71 1013.83 1015.01 1016.21 1017.39 1018.52 1019.57 1020.54 1021.42 1022.23 1022.98 1023.70 1024.40 1025.09 1025.77 1026.44
1007.08 1007.14 1007.19 1007.22 1007.17 1007.05 1006.84 1006.55 1006.21 1005.85 1005.50 1005.21 1004.99 1004.86 1004.83 1004.89 1005.03 1005.22 1005.47 1005.75 1006.08 1006.44 1006.88 1007.40 1008.02 1008.77 1009.65 1010.65 1011.76 1012.95 1014.19 1015.42 1016.61 1017.74 1018.79 1019.74 1020.62 1021.43 1022.19 1022.93 1023.66 1024.39 1025.11 1025.82
1006.16 1006.07 1006.02 1005.98 1005.92 1005.83 1005.70 1005.54 1005.36 1005.18 1005.02 1004.89 1004.80 1004.77 1004.79 1004.86 1004.96 1005.08 1005.23 1005.41 1005.63 1005.90 1006.27 1006.75 1007.36 1008.12 1009.01 1010.04 1011.17 1012.37 1013.60 1014.81 1015.98 1017.07 1018.08 1019.00 1019.86 1020.66 1021.43 1022.19 1022.94 1023.71 1024.46 1025.20
1005.37 1005.18 1005.06 1004.99 1004.95 1004.93 1004.92 1004.91 1004.91 1004.91 1004.92 1004.96 1005.00 1005.06 1005.13 1005.20 1005.27 1005.33 1005.41 1005.51 1005.65 1005.87 1006.19 1006.64 1007.24 1007.98 1008.87 1009.87 1010.97 1012.13 1013.29 1014.44 1015.53 1016.55 1017.50 1018.37 1019.20 1019.98 1020.75 1021.52 1022.29 1023.07 1023.84 1024.58
1004.74 1004.50 1004.35 1004.28 1004.29 1004.36 1004.47 1004.61 1004.78 1004.95 1005.13 1005.30 1005.46 1005.60 1005.71 1005.79 1005.84 1005.89 1005.93 1005.99 1006.11 1006.30 1006.61 1007.04 1007.62 1008.33 1009.17 1010.12 1011.13 1012.19 1013.25 1014.28 1015.27 1016.20 1017.07 1017.89 1018.67 1019.44 1020.20 1020.97 1021.74 1022.50 1023.25 1023.97
1004.26 1004.02 1003.88 1003.86 1003.93 1004.09 1004.31 1004.58 1004.88 1005.19 1005.49 1005.77 1006.02 1006.22 1006.37 1006.48 1006.56 1006.61 1006.67 1006.75 1006.88 1007.10 1007.41 1007.84 1008.40 1009.07 1009.84 1010.69 1011.59 1012.52 1013.44 1014.33 1015.19 1016.01 1016.80 1017.56 1018.31 1019.05 1019.80 1020.54 1021.29 1022.02 1022.72 1023.37
1003.95 1003.75 1003.66 1003.69 1003.83 1004.06 1004.36 1004.72 1005.11 1005.51 1005.89 1006.24 1006.55 1006.80 1007.00 1007.16 1007.29 1007.40 1007.51 1007.66 1007.85 1008.12 1008.47 1008.92 1009.46 1010.08 1010.77 1011.51 1012.27 1013.04 1013.80 1014.55 1015.28 1016.00 1016.70 1017.40 1018.11 1018.82 1019.54 1020.26 1020.96 1021.64 1022.26 1022.82
1003.85 1003.72 1003.69 1003.77 1003.96 1004.24 1004.59 1004.99 1005.42 1005.85 1006.26 1006.64 1006.98 1007.28 1007.54 1007.76 1007.96 1008.16 1008.37 1008.62 1008.92 1009.27 1009.69 1010.16 1010.69 1011.26 1011.87 1012.48 1013.10 1013.71 1014.32 1014.92 1015.52 1016.13 1016.76 1017.41 1018.08 1018.76 1019.45 1020.13 1020.78 1021.38 1021.91 1022.38
1004.04 1003.98 1004.01 1004.13 1004.34 1004.64 1004.99 1005.38 1005.80 1006.22 1006.62 1007.00 1007.36 1007.69 1007.99 1008.29 1008.59 1008.90 1009.24 1009.61 1010.03 1010.48 1010.97 1011.49 1012.01 1012.54 1013.05 1013.55 1014.03 1014.49 1014.95 1015.42 1015.91 1016.43 1016.98 1017.58 1018.22 1018.87 1019.53 1020.16 1020.75 1021.28 1021.73 1022.10
Thickness
5664 5655 5653 5659 5662 5665 5662 5658 5659 5664 5673 5663 5660 5667 5676 5670 5665 5665 5662 5662 5663 5665 5658 5652 5650 5649 5647 5646 5644 5643 5642 5640 5638 5635 5631 5626 5620 5617 5615 5614 5612 5611 5609 5607
5645 5647 5662 5662 5658 5657 5655 5650 5649 5655 5664 5654 5652 5658 5670 5670 5667 5670 5672 5672 5670 5663 5651 5649 5645 5644 5644 5642 5640 5638 5636 5634 5632 5630 5625 5619 5613 5607 5605 5603 5601 5600 5598 5596
5642 5655 5660 5653 5651 5646 5644 5641 5643 5643 5653 5652 5645 5644 5661 5673 5671 5674 5676 5678 5675 5670 5661 5651 5645 5641 5639 5638 5636 5634 5631 5628 5625 5621 5616 5609 5604 5599 5594 5591 5589 5588 5587 5585
5637 5651 5652 5646 5645 5642 5638 5646 5643 5640 5633 5625 5630 5619 5653 5666 5669 5673 5678 5676 5677 5673 5665 5653 5645 5639 5636 5634 5630 5628 5624 5620 5616 5612 5609 5606 5601 5593 5585 5582 5579 5576 5575 5572
5635 5642 5643 5642 5646 5642 5640 5646 5640 5635 5624 5613 5617 5611 5638 5659 5662 5674 5683 5684 5683 5676 5665 5655 5647 5640 5632 5626 5623 5620 5616 5612 5608 5604 5601 5598 5591 5584 5577 5572 5569 5565 5561 5559
5635 5640 5643 5647 5648 5643 5636 5629 5621 5609 5606 5598 5616 5612 5628 5650 5667 5677 5687 5690 5685 5673 5662 5650 5639 5630 5622 5618 5615 5612 5607 5603 5599 5595 5591 5589 5583 5576 5569 5563 5558 5553 5549 5545
5620 5627 5635 5640 5633 5629 5627 5611 5593 5591 5583 5598 5614 5612 5636 5658 5672 5681 5687 5687 5677 5665 5653 5640 5630 5624 5617 5611 5607 5604 5600 5594 5590 5586 5582 5578 5575 5570 5565 5558 5551 5545 5538 5533
5601 5609 5624 5628 5631 5621 5617 5614 5592 5582 5582 5590 5598 5603 5637 5655 5661 5665 5667 5668 5662 5651 5643 5635 5629 5621 5613 5606 5601 5597 5592 5587 5582 5578 5573 5568 5564 5560 5555 5549 5543 5537 5530 5523
5604 5608 5622 5622 5626 5622 5603 5601 5611 5591 5577 5571 5590 5609 5628 5645 5650 5653 5655 5653 5647 5640 5633 5627 5619 5613 5606 5600 5595 5591 5586 5580 5575 5570 5564 5559 5554 5550 5545 5538 5532 5526 5518 5511
5603 5595 5604 5605 5609 5609 5604 5597 5582 5579 5571 5573 5594 5603 5623 5637 5648 5654 5648 5642 5637 5628 5621 5615 5609 5603 5597 5592 5586 5582 5578 5574 5568 5562 5557 5551 5545 5540 5534 5528 5521 5514 5507 5500
5593 5586 5582 5583 5590 5593 5590 5586 5586 5578 5572 5569 5582 5620 5634 5641 5648 5647 5648 5644 5632 5621 5614 5607 5599 5592 5586 5581 5577 5574 5569 5565 5559 5555 5549 5543 5536 5530 5524 5517 5510 5503 5496 5488
5585 5577 5567 5570 5581 5587 5588 5587 5583 5574 5567 5570 5588 5630 5637 5636 5637 5637 5639 5635 5623 5614 5605 5597 5589 5581 5576 5573 5569 5566 5562 5557 5553 5547 5541 5534 5527 5520 5513 5506 5499 5491 5484 5476
5574 5561 5554 5559 5563 5566 5569 5575 5581 5584 5577 5572 5578 5618 5619 5619 5624 5626 5625 5620 5611 5603 5594 5587 5580 5575 5572 5567 5563 5559 5555 5550 5544 5537 5531 5524 5518 5511 5504 5496 5488 5480 5472 5463
5570 5556 5559 5573 5577 5567 5563 5568 5573 5570 5571 5581 5596 5617 5616 5615 5614 5617 5614 5608 5598 5593 5588 5582 5577 5572 5568 5563 5559 5554 5548 5542 5535 5529 5523 5517 5511 5503 5495 5486 5477 5469 5460 5451
5554 5549 5558 5571 5572 5562 5563 5566 5567 5570 5581 5580 5603 5610 5627 5610 5610 5611 5606 5596 5587 5584 5581 5580 5576 5570 5564 5558 5554 5549 5543 5535 5529 5521 5515 5510 5501 5492 5483 5474 5465 5456 5447 5438
5546 5543 5545 5552 5557 5550 5548 5558 5567 5570 5573 5578 5588 5612 5627 5608 5604 5603 5599 5592 5586 5583 5581 5580 5575 5568 5562 5557 5552 5545 5538 5530 5521 5514 5507 5498 5488 5479 5471 5462 5452 5443 5433 5424
5534 5533 5535 5548 5550 5531 5542 5573 5566 5560 5568 5571 5579 5614 5608 5594 5595 5602 5603 5595 5590 5587 5585 5581 5577 5572 5565 5559 5551 5542 5534 5521 5511 5504 5495 5486 5477 5468 5459 5449 5439 5430 5421 5411
5530 5527 5527 5534 5532 5540 5572 5586 5571 5564 5570 5572 5580 5599 5595 5593 5596 5599 5598 5591 5591 5589 5585 5581 5576 5571 5563 5554 5543 5532 5520 5510 5501 5492 5483 5475 5466 5456 5446 5436 5427 5418 5408 5398
5532 5527 5525 5528 5536 5542 5560 5567 5566 5560 5569 5584 5578 5588 5589 5581 5572 5587 5586 5584 5589 5586 5582 5579 5575 5569 5558 5545 5534 5520 5509 5500 5490 5482 5474 5465 5455 5444 5434 5425 5416 5406 5395 5385
5521 5523 5522 5525 5532 5538 5564 5563 5559 5553 5557 5584 5570 5577 5580 5565 5555 5591 5584 5574 5573 5571 5569 5565 5559 5551 5542 5533 5521 5509 5499 5489 5483 5476 5466 5454 5444 5434 5425 5416 5405 5394 5384 5375
5513 5513 5519 5525 5529 5533 5543 5538 5537 5537 5560 5557 5553 5560 5561 5554 5564 5568 5557 5556 5554 5553 5551 5547 5542 5535 5528 5518 5508 5498 5489 5483 5476 5464 5452 5441 5432 5423 5414 5403 5391 5380 5370 5359
5506 5509 5513 5515 5521 5529 5525 5515 5529 5537 5533 5529 5531 5532 5534 5536 5536 5532 5532 5530 5528 5527 5526 5525 5520 5514 5508 5501 5494 5486 5478 5471 5458 5447 5438 5428 5419 5409 5399 5388 5377 5366 5355 5344
5489 5500 5504 5507 5513 5509 5501 5506 5507 5506 5508 5508 5507 5509 5512 5513 5512 5510 5507 5505 5504 5503 5501 5499 5496 5490 5484 5481 5477 5470 5461 5450 5441 5431 5422 5412 5402 5393 5384 5374 5363 5350 5339 5330
5468 5472 5478 5482 5486 5483 5480 5479 5481 5484 5486 5487 5488 5489 5491 5493 5491 5488 5484 5482 5480 5477 5475 5474 5472 5467 5460 5456 5453 5448 5439 5432 5423 5414 5404 5394 5385 5375 5365 5357 5347 5336 5326 5316
5456 5452 5460 5467 5466 5461 5463 5461 5463 5463 5463 5466 5468 5470 5471 5471 5470 5467 5462 5459 5456 5454 5451 5450 5449 5444 5436 5431 5426 5421 5416 5410 5402 5393 5383 5375 5366 5357 5347 5338 5330 5322 5314 5305
5433 5441 5449 5458 5455 5453 5456 5452 5449 5447 5447 5448 5449 5450 5449 5450 5448 5445 5440 5437 5434 5431 5429 5426 5423 5418 5411 5406 5400 5395 5392 5388 5381 5371 5362 5353 5345 5336 5327 5317 5307 5302 5294 5286